Location: Arrington
(35.8681°N, 86.7092°W)
Time: 20:55:12
(UTC+00:00)

ATLAS 2AS CENTAUR R/B - Pass Details

Date: 28 February 2020
Orbit: 929 x 1283 km, 63.7° (Epoch: 05 April)

Event Time Altitude Azimuth Distance (km) Brightness Sun altitude
Exits shadow 08:42:31 - 340° (NNW) 3,973 5.7 -43.7°
Reaches altitude 10° 08:46:52 10° 5° (N) 3,165 5.4 -42.9°
Maximum altitude 08:49:37 12° 27° (NNE) 2,965 5.4 -42.4°
Drops below altitude 10° 08:52:18 10° 49° (NE) 3,076 5.7 -41.9°
Sets 08:57:13 0° 78° (ENE) 3,941 6.5 -41.0°
